Find Kosmos-1897

NORAD ID: 18575 Int'l Des: 1987-096 Owner: UNKS Country: SU operational
MEOCIRCULAR

Aktuelle Ansicht

3D-Globus wird geladen...

Über Kosmos-1897

Beschreibung wird geladen...

Nächste Überflüge

Passes for default location (London). Set your location on the main map for personalized predictions.

Höhenverlauf

Loading altitude history...

Zweizeiliger Elementsatz

1 18575U 87096A 26150.02101389 -.00000215 00000-0 00000+0 0 9992
2 18575 11.0512 327.0329 0007190 137.3317 236.8401 1.00317076141012
Epoch: 30. Mai 2026 • Age: 13 hours

Aktueller Status

Höhe 35761.6 km
Geschwindigkeit 3.08 km/s
Subsatellitenpunkt -4.25°S, 85.86°E
Startdatum 26. Nov. 1987
Alter 38.5 years
Typ other

Technische Details

Klassifizierung Payload
Masse 2400.00 kg
Trockenmasse 2200.00 kg
Gesamtmasse 2400.00 kg
Länge 6.60 m
Durchmesser 4.10 m
Spannweite 16.00 m
Form Cyl + 2 Pan + 2 Dish
Hersteller NPOPM
Bus-Typ KAUR-4 Al'tair
Phasenstatus In Orbit
Besitzer/Staat UNKS/SU

Most Searched